User: anonymous   Login
Location: Montr�al
(45.5000°N, 73.5830°W)
Time: 10:04:58
(UTC-05:00)
Language:

Cosmos 1470 Rocket - Orbit

View from above orbital plane
View from above orbital plane
View from above satellite
View from above satellite

Ground track
Ground track

The orbit data is extracted from the following two-line orbital elements,

1 14148U 83061B   17349.88562104  .00000074  00000-0  60558-5 0  9994
2 14148  82.5197  99.4098 0023140  93.9401  45.5429 14.83256888861778
Epoch (UTC): 15 December 2017 21:15:17
Eccentricity: 0.0023140
inclination: 82.5197°
perigee height: 603 km
apogee height: 635 km
right ascension of ascending node: 99.4098°
argument of perigee: 93.9401°
revolutions per day: 14.83256888
mean anomaly at epoch: 45.5429°
orbit number at epoch: 86177

The dashed part of the orbit path shows where the satellite is in the earth's shadow,  

DLR